This demonstration page uses our WeatherBlox Daily Observations layout. Learn more.

Hourly Observations for May 30, 2016

Temp ( °F °C ) Dew Point ( °F °C ) Humidity (%) Winds ( mph kmh ) Pressure ( in mb ) Visibility ( mi km ) Precip ( " mm )
12:15 am 00:15 Clear 65 18.6 48 9 54 54 SSW 13 20 30 1016 10 16.0934 0 0
12:35 am 00:35 Clear 65 18.2 48 9.1 56 56 SSW 8 13 30 1016 10 16.0934 0 0
12:55 am 00:55 Clear 64 17.6 49 9.2 58 58 SW 6 9 30 1016 10 16.0934 0 0
1:15 am 01:15 Clear 64 17.8 49 9.5 58 58 SW 6 9 30 1016 10 16.0934 0 0
1:35 am 01:35 Clear 63 17.3 49 9.7 61 61 SSW 5 7 30 1016 10 16.0934 0 0
1:55 am 01:55 Clear 63 17 50 10 64 64 SSW 3 6 30 1016 10 16.0934 0 0
2:15 am 02:15 Clear 61 16.3 51 10.4 68 68 SSE 6 9 29.97 1015 10 16.0934 0 0
2:35 am 02:35 Clear 60 15.5 52 10.9 74 74 SE 5 7 30 1016 10 16.0934 0 0
2:55 am 02:55 Clear 58 14.4 52 11.3 82 82 SSE 5 7 29.97 1015 10 16.0934 0 0
3:15 am 03:15 Clear 59 14.9 52 10.9 77 77 SSW 6 9 29.97 1015 10 16.0934 0 0
3:35 am 03:35 Clear 58 14.4 52 11.2 81 81 Calm 29.97 1015 10 16.0934 0 0
3:55 am 03:55 Clear 57 14 52 11.1 83 83 Calm 29.97 1015 10 16.0934 0 0
4:15 am 04:15 Clear 57 13.7 52 11.2 85 85 Calm 29.94 1014 10 16.0934 0 0
4:35 am 04:35 Clear 57 14 52 11.1 83 83 S 6 9 29.97 1015 10 16.0934 0 0
4:55 am 04:55 Clear 58 14.3 53 11.4 83 83 SE 8 13 29.94 1014 10 16.0934 0 0
5:15 am 05:15 Clear 58 14.5 53 11.7 83 83 SSE 9 15 29.94 1014 10 16.0934 0 0
5:35 am 05:35 Clear 59 15 53 11.5 80 80 SSE 5 7 29.94 1014 10 16.0934 0 0
5:55 am 05:55 Clear 58 14.3 53 11.5 83 83 Calm 29.97 1015 10 16.0934 0 0
6:15 am 06:15 Sunny 58 14.5 53 11.4 82 82 Calm 29.97 1015 10 16.0934 0 0
6:35 am 06:35 Sunny 57 13.7 53 11.6 87 87 SE 3 6 29.97 1015 10 16.0934 0 0
6:55 am 06:55 Sunny 57 13.9 53 11.7 87 87 SSE 3 6 29.97 1015 10 16.0934 0 0
7:15 am 07:15 Sunny 60 15.3 54 12.2 82 82 SSE 3 6 29.97 1015 10 16.0934 0 0
7:35 am 07:35 Sunny 62 16.6 55 12.9 79 79 SSW 3 6 29.94 1014 10 16.0934 0 0
7:55 am 07:55 Sunny 64 17.5 56 13.3 77 77 SSE 3 6 29.94 1014 10 16.0934 0 0
8:15 am 08:15 Sunny 65 18.3 56 13.4 73 73 S 5 7 29.94 1014 10 16.0934 0 0
8:35 am 08:35 Sunny 68 19.8 56 13.2 66 66 S 6 9 29.91 1013 10 16.0934 0 0
8:55 am 08:55 Sunny 68 20.1 56 13.1 64 64 SW 3 6 29.91 1013 10 16.0934 0 0
9:15 am 09:15 Sunny 69 20.5 54 12.4 60 60 WSW 6 9 29.91 1013 10 16.0934 0 0
9:35 am 09:35 Sunny 68 20.1 54 12.3 61 61 WSW 6 9 29.91 1013 10 16.0934 0 0
9:55 am 09:55 Sunny 68 19.8 55 12.6 63 63 Calm 29.91 1013 10 16.0934 0 0
10:15 am 10:15 Sunny 69 20.6 56 13.3 63 63 S 6 9 29.91 1013 10 16.0934 0 0
10:35 am 10:35 Sunny 71 21.6 54 12.3 56 56 S 5 7 29.91 1013 10 16.0934 0 0
10:55 am 10:55 Sunny 72 22.4 56 13.4 57 57 S 6 9 29.91 1013 10 16.0934 0 0
11:15 am 11:15 Sunny 73 22.8 55 12.5 52 52 S 5 7 29.85 1011 10 16.0934 0 0
11:35 am 11:35 Sunny 74 23.6 53 11.8 48 48 SE 6 9 29.85 1011 10 16.0934 0 0
11:55 am 11:55 Sunny 76 24.4 52 11 43 43 S 9 15 29.85 1011 10 16.0934 0 0
12:15 pm 12:15 Sunny 76 24.6 54 12 45 45 SSW 12 19 29.85 1011 10 16.0934 0 0
12:35 pm 12:35 Sunny 76 24.6 54 12.2 46 46 S 9 15 29.85 1011 10 16.0934 0 0
12:55 pm 12:55 Sunny 77 25.1 52 10.9 41 41 S 10 17 29.85 1011 10 16.0934 0 0
1:15 pm 13:15 Sunny 79 25.9 52 11.1 40 40 S 14 22 29.83 1010 10 16.0934 0 0
1:35 pm 13:35 Sunny 79 26.1 52 10.9 39 39 SSW 12 19 29.83 1010 10 16.0934 0 0
1:55 pm 13:55 Sunny 80 26.4 51 10.5 37 37 SSW 14 22 29.8 1009 10 16.0934 0 0
2:15 pm 14:15 Sunny 80 26.7 49 9.4 34 34 S 14 22 29.8 1009 10 16.0934 0 0
2:35 pm 14:35 Sunny 80 26.9 52 11 37 37 S 15 24 29.77 1008 10 16.0934 0 0
2:55 pm 14:55 Sunny 81 27.1 51 10.7 36 36 S 14 22 29.77 1008 10 16.0934 0 0
3:15 pm 15:15 Sunny 81 27.3 51 10.4 35 35 S 14 22 29.77 1008 10 16.0934 0 0
3:35 pm 15:35 Sunny 81 27.4 49 9.3 32 32 S 14 22 29.77 1008 10 16.0934 0 0
3:55 pm 15:55 Sunny 81 27.4 51 10.3 34 34 S 17 28 29.74 1007 10 16.0934 0 0
4:15 pm 16:15 Sunny 82 27.5 50 10 33 33 SSW 15 24 29.74 1007 10 16.0934 0 0
4:35 pm 16:35 Sunny 82 27.5 52 11.2 36 36 SSW 17 28 29.74 1007 10 16.0934 0 0
4:55 pm 16:55 Sunny 81 27.4 52 11.3 37 37 S 17 28 29.71 1006 10 16.0934 0 0
5:15 pm 17:15 Sunny 82 27.5 51 10.8 35 35 S 16 26 29.71 1006 10 16.0934 0 0
5:35 pm 17:35 Sunny 81 27.3 52 11.2 37 37 SSW 17 28 29.71 1006 10 16.0934 0 0
5:55 pm 17:55 Sunny 81 27.3 53 11.6 38 38 S 16 26 29.71 1006 10 16.0934 0 0
6:15 pm 18:15 Sunny 81 27.1 53 11.5 38 38 S 17 28 29.71 1006 10 16.0934 0 0
6:35 pm 18:35 Sunny 80 26.7 53 11.5 39 39 S 21 33 29.68 1005 10 16.0934 0 0
6:55 pm 18:55 Sunny 78 25.7 53 11.6 41 41 S 16 26 29.68 1005 10 16.0934 0 0
7:15 pm 19:15 Sunny 78 25.5 54 12.1 43 43 S 14 22 29.68 1005 10 16.0934 0 0
7:35 pm 19:35 Sunny 77 25.1 55 12.5 46 46 S 14 22 29.68 1005 10 16.0934 0 0
7:55 pm 19:55 Sunny 76 24.5 55 12.9 48 48 SSE 10 17 29.71 1006 10 16.0934 0 0
8:15 pm 20:15 Sunny 74 23.6 56 13.6 54 54 SSE 7 11 29.71 1006 10 16.0934 0 0
8:35 pm 20:35 Sunny 74 23.6 56 13.5 53 53 S 10 17 29.71 1006 10 16.0934 0 0
8:55 pm 20:55 Sunny 73 23 56 13.6 56 56 S 10 17 29.74 1007 10 16.0934 0 0
9:15 pm 21:15 Clear with Nearby Thunderstorms 72 22.2 57 13.8 59 59 S 8 13 29.74 1007 10 16.0934 0 0
9:35 pm 21:35 Mostly Cloudy with Nearby Thunderstorms 69 20.6 51 10.3 52 52 WNW 30 48 29.83 1010 5 8.0467 0 0
9:55 pm 21:55 Cloudy with Thunderstorms 62 16.8 54 12.2 74 74 WNW 26 43 29.88 1012 10 16.0934 0.03 0.762
10:15 pm 22:15 Cloudy with Light Thunderstorms 62 16.4 55 12.7 79 79 WNW 18 30 29.91 1013 10 16.0934 0.03 0.762
10:35 pm 22:35 Cloudy with Light Rain 62 16.8 52 11.3 70 70 WNW 24 39 29.88 1012 10 16.0934 0.04 1.016
10:55 pm 22:55 Cloudy with Light Rain 63 17 51 10.8 67 67 WNW 28 44 29.85 1011 10 16.0934 0.07 1.778
11:35 pm 23:35 Cloudy with Heavy Rain 61 16 54 12.1 78 78 WSW 8 13 29.88 1012 7 11.26538 0.14 3.556
11:55 pm 23:55 Cloudy with Rain 60 15.4 55 12.8 85 85 E 8 13 29.85 1011 7 11.26538 0.21 5.334

Powered by AerisWeather